Погода в Ключах

Россия / Красноярский край     56°09′48″N   90°29′30″E
темп.,
°C
ветер,
м/с
пор.,
м/с
влажн.,
%
обл.,
%
осадки,
мм/ч
давл.,
гПа
погр.,
м
18 мая, ср
ср1801:00+16ю410585 0.0 1007173
04:00+17ююз5145167 0.0 1007303
07:00+18юз41251100 0.1 1008450
10:00+24зюз7936100 0.0 10081176
13:00+25з71335100 0.0 10082176
16:00+25зсз8133396 0.0 10092982
19:00+23зсз584199 0.0 1010927
22:00+18зюз1150100 0.0 101111
19 мая, чт
чт1901:00+16юз1154100 0.0 101111
04:00+15юв115988 0.0 101111
07:00+17ююв126195 0.0 101161
10:00+22юв2345100 0.0 1010557
13:00+26ююв343484 0.0 10071557
16:00+29ю3526100 0.0 10052896
19:00+24вюв483698 0.0 1002129
22:00+21ююз51347100 0.2 1003297
20 мая, пт
пт2001:00+17з6138196 1.0 1006552
04:00+16зюз7148285 0.3 1009709
07:00+15зюз6125993 0.5 10121075
10:00+18зюз71040100 0.0 10131676
13:00+19зюз7103296 0.0 10132745
16:00+21зюз612275 0.0 10123371
19:00+21зюз5103199 0.0 10111135
22:00+14з3115198 0.0 1012273
21 мая, сб
сб2101:00+12ююз396684 0.4 1013173
04:00+12зюз51158100 0.0 1013362
07:00+14юз4954100 0.0 1013490
10:00+17зюз61144100 0.0 10121917
13:00+19з71138100 0.0 10122419
16:00+16з3858100 0.0 1011603
19:00+15ссз1369100 0.0 1011270
22:00+14вюв1171100 0.0 101212
22 мая, вс
вс2201:00+12вюв227778 0.0 101111
04:00+12вюв227791 0.0 101031
07:00+15вюв376694 0.0 1010184
10:00+22вюв46455 0.0 1008639
13:00+26вюв563341 0.0 10061856
16:00+27вюв5630100 0.0 10052101
19:00+24в51140100 0.0 1005456
22:00+19вюв6135274 0.0 1006346